Miscellaneous Local Product
Issued by NWS Hastings, NE

Home | Current Version | Previous Version | Graphics & Text | Print | Product List | Glossary On
Versions: 1 2 3 4 5 6 7 8 9 10 11 12 13 14 15 16 17 18 19 20 21 22 23 24 25 26 27 28 29 30 31 32 33 34 35 36 37 38 39 40 41 42 43 44 45 46 47 48 49 50
000
AXUS43 KGID 121902
MISGRI

GID CWA HOURLY WEATHER ROUNDUP
NATIONAL WEATHER SERVICE HASTINGS NE
200 PM CDT SAT JUL 12 2014

NOTE: "FAIR" INDICATES FEW OR NO CLOUDS BELOW 12,000 FEET WITH NO
SIGNIFICANT WEATHER AND/OR OBSTRUCTIONS TO VISIBILITY.

...SOUTH CENTRAL NEBRASKA...

CITY           SKY/WX    TMP DP  RH WIND       PRES   REMARKS
GRAND ISLAND   PTSUNNY   81  69  67 N13       30.04R
HASTINGS       MOSUNNY   84  68  58 N10       30.03R
KEARNEY        PTSUNNY   81  68  65 N14G20    30.06R
ORD            PTSUNNY   75  67  76 NE12      30.06S
YORK           MOSUNNY   84  72  65 NW8       30.01S
AURORA         PTSUNNY   82  72  72 N12       30.03R
LEXINGTON      CLOUDY    77  69  76 N10       30.08R
HOLDREGE       MOSUNNY   80  69  68 N12       30.05S
HEBRON         SUNNY     93  68  43 SW9       29.98S HX  97

...NEBRASKA PANHANDLE...

CITY           SKY/WX    TMP DP  RH WIND       PRES   REMARKS
CHADRON        MOSUNNY   79  59  50 CALM      30.18S
ALLIANCE       PTSUNNY   77  59  53 NW8       30.21F
SCOTTSBLUFF    PTSUNNY   74  61  63 VRB5      30.23F
SIDNEY         PTSUNNY   78  61  55 N10       30.24S

...WESTERN AND NORTH CENTRAL NEBRASKA...

CITY           SKY/WX    TMP DP  RH WIND       PRES   REMARKS
VALENTINE      PTSUNNY   76  67  73 E6        30.13F
AINSWORTH      PTSUNNY   77  65  66 E3        30.11S
ONEILL         PTSUNNY   74  66  76 N5        30.07F
BROKEN BOW     PTSUNNY   76  68  76 NE9       30.09R
IMPERIAL       PTSUNNY   80  66  62 N14       30.14S
NORTH PLATTE   PTSUNNY   79  67  66 NE8       30.09F
MCCOOK         PTSUNNY   83  69  62 N13G21    30.08R

...EASTERN NEBRASKA...

CITY           SKY/WX    TMP DP  RH WIND       PRES   REMARKS
NORFOLK        LGT RAIN  72  67  84 N9        30.04S
SO SIOUX CITY  CLOUDY    74  68  81 NE9       30.02F
TEKAMAH        CLOUDY    77  70  79 N14       30.00S
ALBION         CLOUDY    71  65  81 N10       30.05F
OMAHA EPPLEY   PTSUNNY   89  69  51 W12       29.96S HX  93
MILLARD        PTSUNNY   87  71  59 W6        29.96S HX  92
LINCOLN        MOSUNNY   89  68  49 W8        29.98S HX  93
NEBRASKA CITY  SUNNY     88  73  60 S7        29.97S HX  94
BEATRICE       MOSUNNY   90  70  52 SW10      29.97S HX  95
FALLS CITY     SUNNY     94  71  47 S12       29.96F HX 101

...NORTHERN KANSAS...

CITY           SKY/WX    TMP DP  RH WIND       PRES   REMARKS
GOODLAND       SUNNY     84  66  54 N10G23    30.13S
HILL CITY      SUNNY     96  61  31 SW6G17    29.99F HX  96
NORTON         CLEAR     91  61  35 N9G17     30.02S HX  91
SMITH CENTER   SUNNY     93  61  33 S8        29.98F HX  93
BELOIT         MOSUNNY   91  61  35 S13       29.96F HX  91
HAYS           SUNNY     93  59  31 S20       30.00F HX  92
RUSSELL        SUNNY     93  67  42 S21       29.99S HX  96
CONCORDIA      MOSUNNY   93  65  39 SW13      29.97F HX  95
SALINA         MOSUNNY   97  66  36 SW16G25   29.99F HX 100
TOPEKA         MOSUNNY   95  69  42 SW13G20   30.00F HX 100



USA.gov is the U.S. government's official web portal to all federal, state and local government web resources and services.